Regional Weather Roundup
Issued by NWS

Home | Current Version | Previous Version | Text Only | Print | Product List | Glossary Off
Versions: 1 2 3 4 5 6 7 8 9 10 11 12 13 14 15 16 17 18 19 20 21 22 23 24 25 26 27 28 29 30 31 32 33 34 35 36 37 38 39 40 41 42 43 44 45 46 47 48 49 50

000
ASUS45 KABQ 240910
RWRNM
NEW MEXICO REGIONAL WEATHER ROUNDUP
NATIONAL WEATHER SERVICE ALBUQUERQUE NM
300 AM MDT WED AUG 24 2016

NOTE: "FAIR" MEANS FEW OR NO CLOUDS BELOW 12,000 FEET AGL WITH NO
       SIGNIFICANT WEATHER OR OBSTRUCTIONS TO VISION.

      THIS PRODUCT IS RELEASED AS TWO VERSIONS.  ONE VERSION NEAR
      THE TOP OF THE HOUR CONTAINING PRELIMINARY DATA FROM ALBUQUERQUE
      AND OTHER STATIONS.  A FINAL VERSION WITH ADDITIONAL DATA IS
      ISSUED ABOUT 10 MINUTES AFTER THE HOUR.

NMZ501-503-504-510>518-241000-
NORTHWEST PLATEAU/NORTHCENTRAL MOUNTAINS

CITY           SKY/WX    TMP DP  RH WIND       PRES   REMARKS
FARMINGTON     MOCLDY    57  54  89 CALM      30.23S
LOS ALAMOS     FAIR      56  43  61 CALM      30.30S
SANTA FE       FAIR      55  48  77 SW5       30.25F
TAOS           FAIR      45  37  76 CALM      30.31S
ANGEL FIRE     MOCLDY    34  32  92 CALM      30.38S

$$
NMZ402-403-502-505>509-241000-
WESTCENTRAL MOUNTAINS/SOUTHWEST MOUNTAINS

CITY           SKY/WX    TMP DP  RH WIND       PRES   REMARKS
GALLUP         CLOUDY    53  51  93 NE3       30.29S
GRANTS         FAIR      51  48  89 N3        30.31S
SILVER CITY    FAIR      56  48  75 N8        30.22F

$$
NMZ407-409-411-412-241000-
SOUTHERN DESERTS

CITY           SKY/WX    TMP DP  RH WIND       PRES   REMARKS
LORDSBURG      FAIR      64  45  48 W5        30.16S
DEMING         FAIR      64  50  60 SW6       30.16S
LAS CRUCES     FAIR      65  61  86 NW5       30.15F
HOLLOMAN AFB   FAIR      70  57  61 S6        30.10S
ALAMOGORDO     FAIR      68  59  73 S8        30.13R
T OR C         FAIR      66  47  50 N6        30.17F

$$
NMZ519>523-241000-
CENTRAL VALLEYS/CENTRAL HIGHLANDS

CITY           SKY/WX    TMP DP  RH WIND       PRES   REMARKS
ALBUQUERQUE    FAIR      62  51  67 E5        30.21F
DOUBLE EAGLE   MOCLDY    57  48  72 NW5       30.25S
MORIARTY ARPT  FAIR      54  47  78 CALM      30.26S
CLINES CORNERS FAIR      52  45  77 NW7       30.29S
BELEN          FAIR      60  50  69 CALM      30.21F
SOCORRO        FAIR      65  45  47 N3        30.19S

$$
NMZ524>526-539-540-241000-
SOUTHCENTRAL MOUNTAINS

CITY           SKY/WX    TMP DP  RH WIND       PRES   REMARKS
RUIDOSO          N/A     61  41  48 CALM      30.31R

$$
NMZ527>531-241000-
NORTHEAST HIGHLANDS/NORTHEAST PLAINS

CITY           SKY/WX    TMP DP  RH WIND       PRES   REMARKS
LAS VEGAS      FAIR      50  42  74 N8        30.26F
RATON          FAIR      58  45  62 N10       30.21F
CLAYTON        FAIR      65  50  58 NW16      30.12F

$$
NMZ532>537-241000-
EASTCENTRAL PLAINS

CITY           SKY/WX    TMP DP  RH WIND       PRES   REMARKS
TUCUMCARI      FAIR      71  59  65 SW17      30.09R
CANNON AFB     FAIR      67  55  66 SW9       30.14S
CLOVIS AIRPORT FAIR      66  52  59 SW14      30.12F

$$
NMZ028-029-538-241000-
SOUTHEAST PLAINS

CITY           SKY/WX    TMP DP  RH WIND       PRES   REMARKS
ROSWELL        FAIR      65  60  84 SW13      30.12F
ARTESIA        LGT RAIN  64  64 100 S12       30.13F
CARLSBAD       LGT RAIN  63  62  97 SE9       30.12F
HOBBS          LGT RAIN  64  64 100 E3        30.16S


$$




USA.gov is the U.S. government's official web portal to all federal, state and local government web resources and services.